Regional Weather Roundup
Issued by NWS State College, PA

Home | Current Version | Previous Version | Text Only | Print | Product List | Glossary On
Versions: 1 2 3 4 5 6 7 8 9 10 11 12 13 14 15 16 17 18 19 20 21 22 23 24 25 26 27 28 29 30 31 32 33 34 35 36 37 38 39 40 41 42 43 44 45 46 47 48 49 50
000
ASUS41 KCTP 230610
RWRCTP

REGIONAL WEATHER ROUNDUP
NATIONAL WEATHER SERVICE STATE COLLEGE PA
200 AM EDT SUN JUL 23 2017

Note: "fair" indicates few or no clouds below 12,000 feet with no
significant weather and/or obstructions to visibility.

* = STATION THAT DOES NOT REPORT PRECIPITATION /E.G. RAIN...SNOW...ETC/
    THUNDER OR FOG.

PAZ002>004-007>009-013>016-020>023-029>032-230700-
WESTERN PENNSYLVANIA

CITY           SKY/WX    TMP DP  RH WIND       PRES   REMARKS
ERIE           LGT RAIN  71  68  90 CALM      29.75F
MEADVILLE      CLOUDY    71  71 100 S3        29.79F FOG
FRANKLIN*      CLOUDY    70  68  94 SW5       29.81F VSB 1/2
NEW CASTLE     CLOUDY    74  73  97 SW5       29.80S
BEAVER COUNTY  NOT AVBL
BUTLER*        CLOUDY    73  70  88 SW3       29.81F
PITTSBURGH INT MOCLDY    73  73 100 W6        29.80F
PITTSBURGH     CLOUDY    72  69  90 SW7       29.80F
INDIANA*       CLOUDY    72  72 100 W5        29.84S FOG
LATROBE        CLOUDY    72  72 100 SW8       29.82F
WASHINGTON CO* CLOUDY    72  70  94 SW3       29.82S
$$

PAZ004>006-010>012-017>019-024>028-033>037-041-042-045-046-049>053-230700-
CENTRAL PENNSYLVANIA

CITY           SKY/WX    TMP DP  RH WIND       PRES   REMARKS
BRADFORD       CLOUDY    66  66 100 CALM      29.83F FOG
DUBOIS         CLOUDY    70  68  93 W7        29.82S FOG
CLEARFIELD     RAIN      68  68 100 N6        29.82S FOG
JOHNSTOWN      CLOUDY    69  69 100 W7        29.85F
ALTOONA        MOCLDY    70  70 100 SW7       29.82F
STATE COLLEGE  RAIN      68  67  98 CALM      29.80F
WILLIAMSPORT   CLOUDY    72  71  97 CALM      29.76F
SELINSGROVE    CLOUDY    71  70  96 NW3       29.77S
FT INDIANTOWN  CLOUDY    72  72 100 CALM      29.76S
CAPITAL CITY   MOCLDY    75  70  84 W3        29.76R
HARRISBURG     MOCLDY    75  73  93 VRB3      29.75S
YORK           PTCLDY    74  72  93 VRB3      29.77S
$$

PAZ038>040-043-044-047-048-054-055-060>062-067>071-230700-
EASTERN PENNSYLVANIA

CITY           SKY/WX    TMP DP  RH WIND       PRES   REMARKS
SCRANTON       CLOUDY    72  70  93 E3        29.78F
MOUNT POCONO   CLOUDY    67  66  97 E3        29.82S
ALLENTOWN      CLOUDY    72  69  90 CALM      29.76S
QUAKERTOWN*    CLOUDY    72  72 100 CALM      29.77R
READING        CLOUDY    72  71  97 CALM      29.75S
LANCASTER      PTCLDY    75  73  93 W6        29.76S
COATESVILLE    CLOUDY    73  72  94 CALM      29.78F
POTTSTOWN      CLOUDY    71  71 100 CALM      29.78R FOG
BLUE BELL      CLOUDY    72  72 100 CALM      29.77S
DOYLESTOWN     CLOUDY    71  71 100 CALM      29.75S
WILLOW GROVE   NOT AVBL
NORTH PHILA    CLOUDY    77  73  87 W5        29.76R
PHILADELPHIA   MOCLDY    79  72  79 SW12      29.74F
$$




USA.gov is the U.S. government's official web portal to all federal, state and local government web resources and services.